Santa Fe, NM

6:19 PM MDT on June 24, 2017 (GMT -0600)
Santa Fe Municipal

Weather History for KSAF - November, 2012

Change the Weather History Date:

Tuesday, November 6, 2012

  Actual Average Record
Temperature  
Mean Temperature 52 °F -  
Max Temperature 68 °F 67 °F 72 °F (1977)
Min Temperature 36 °F 35 °F 19 °F (2008)
Degree Days  
Heating Degree Days 13    
Growing Degree Days 2 (Base 50)    
Moisture  
Dew Point 18 °F    
Average Humidity 29    
Maximum Humidity 46    
Minimum Humidity 15    
Precipitation  
Precipitation 0.00 in - - ()
Sea Level Pressure  
Sea Level Pressure 30.19 in    
Wind  
Wind Speed 6 mph (NNW)    
Max Wind Speed 16 mph    
Max Gust Speed 25 mph    
Visibility 10 miles    
Events      
Averages and records for this station are not official NWS values.
T = Trace of Precipitation, MM = Missing Value Source: NWS Daily Summary

Daily Weather History Graph

Daily Weather History Graph

Search for Another Location

Airport or City:

Trip Planner

Search our weather history database for the weather conditions in past years. The results will help you decide how hot, cold, wet, or windy it might be!

Date:

Astronomy

Nov. 06, 2012 Rise Set
Actual Time 6:31 AM MST 5:03 PM MST
Civil Twilight 6:04 AM MST 5:30 PM MST
Nautical Twilight 5:34 AM MST 6:00 PM MST
Astronomical Twilight 5:04 AM MST 6:30 PM MST
Moon 11:43 PM MST (11/6) 12:27 PM MST (11/6)
Length of Visible Light 11h 25m
Length of Day
10h 32m
Waning Gibbous, 52% of the Moon is Illuminated
Nov 6
Waning Gibbous
Nov 6
Last Quarter
Nov 13
New
Nov 20
First Quarter
Nov 28
Full

Hourly Weather History & Observations

Time (MST) Temp. Windchill Dew Point Humidity Pressure Visibility Wind Dir Wind Speed Gust Speed Precip Events Conditions
12:53 AM 43.0 °F - 17.1 °F 35% 30.10 in 10.0 mi Calm Calm - N/A   Clear
1:53 AM 45.0 °F 43.5 °F 18.0 °F 34% 30.10 in 10.0 mi NE 3.5 mph - N/A   Clear
2:53 AM 39.0 °F 34.8 °F 17.1 °F 41% 30.12 in 10.0 mi NE 5.8 mph - N/A   Clear
3:53 AM 37.9 °F 34.4 °F 17.1 °F 43% 30.14 in 10.0 mi NW 4.6 mph - N/A   Clear
4:53 AM 37.0 °F - 17.1 °F 44% 30.17 in 10.0 mi Calm Calm - N/A   Clear
5:53 AM 37.0 °F 32.4 °F 17.1 °F 44% 30.18 in 10.0 mi NE 5.8 mph - N/A   Clear
6:53 AM 36.0 °F 28.5 °F 17.1 °F 46% 30.22 in 10.0 mi North 10.4 mph - N/A   Clear
7:53 AM 43.0 °F 35.4 °F 19.0 °F 38% 30.22 in 10.0 mi North 16.1 mph - N/A   Clear
8:53 AM 50.0 °F - 19.9 °F 31% 30.24 in 10.0 mi North 16.1 mph - N/A   Clear
9:53 AM 55.9 °F - 21.0 °F 26% 30.21 in 10.0 mi North 13.8 mph 25.3 mph N/A   Clear
10:53 AM 62.1 °F - 21.0 °F 21% 30.18 in 10.0 mi North 9.2 mph - N/A   Clear
11:53 AM 64.9 °F - 19.0 °F 17% 30.13 in 10.0 mi NNW 6.9 mph - N/A   Clear
12:53 PM 66.9 °F - 19.0 °F 16% 30.10 in 10.0 mi SSW 8.1 mph - N/A   Clear
1:53 PM 68.0 °F - 19.0 °F 15% 30.06 in 10.0 mi SW 9.2 mph - N/A   Clear
2:53 PM 68.0 °F - 18.0 °F 15% 30.08 in 10.0 mi SW 8.1 mph - N/A   Clear
3:53 PM 66.9 °F - 17.1 °F 15% 30.09 in 10.0 mi WSW 9.2 mph - N/A   Clear
4:53 PM 62.1 °F - 19.0 °F 19% 30.12 in 10.0 mi WSW 3.5 mph - N/A   Clear
5:53 PM - - - N/A% 30.27 in - North - - N/A   Unknown
6:53 PM - - - N/A% 30.28 in - North - - N/A   Unknown
7:53 PM - - - N/A% 30.29 in - North - - N/A   Unknown
8:53 PM - - - N/A% 30.30 in - North - - N/A   Unknown
9:53 PM - - - N/A% 30.30 in - North - - N/A   Unknown
10:53 PM - - - N/A% 30.31 in - North - - N/A   Unknown
11:53 PM - - - N/A% 30.31 in - North - - N/A   Unknown